Temperature
22 22 22 21 21 21 21 20 20 20 20 19 19 19 19 19 19 19 18 18 18 18 18 18 18 18 18 18 18 18 18 18 18 18 18 18 18 18 18 18 18 18 18
22 22 22 22 21 21 21 20 20 20 20 19 19 19 19 19 19 19 18 18 18 18 18 18 18 18 18 18 18 18 18 18 18 18 18 18 18 18 18 18 18 18 18
23 22 22 22 22 21 21 21 20 20 20 20 19 19 19 19 19 19 19 18 18 18 18 18 18 18 18 18 18 18 18 18 18 18 17 17 17 17 18 18 18 18 18
23 22 22 22 22 22 21 21 21 20 20 20 19 19 19 19 19 19 19 19 18 18 18 18 18 18 18 18 18 18 18 18 18 18 17 17 17 17 17 17 17 17 17
23 23 23 23 22 22 21 21 21 20 20 20 20 20 19 19 19 19 19 19 19 19 19 18 18 18 18 18 18 18 18 18 18 18 17 17 17 17 17 17 17 17 17
23 23 23 23 22 22 22 21 21 21 20 20 20 20 20 19 19 19 19 19 19 19 19 18 18 18 18 18 18 18 18 17 17 17 17 17 17 17 17 17 17 17 17
23 23 23 22 22 22 22 21 21 21 21 20 20 20 20 20 19 19 19 19 19 19 19 18 18 18 18 18 18 18 17 17 17 17 17 17 17 17 17 17 16 16 16
24 23 23 23 23 22 22 22 21 21 21 21 20 20 20 20 19 19 19 19 19 19 19 19 19 18 18 18 18 18 18 17 17 17 17 17 17 17 17 16 16 16 16
24 24 23 23 23 22 22 22 21 21 21 21 20 20 20 20 20 19 19 19 19 19 19 19 19 18 18 18 18 18 18 17 17 17 17 17 17 17 17 16 16 16 15
24 24 23 23 23 23 22 22 22 21 21 21 21 20 20 20 20 19 19 19 19 19 18 18 18 18 18 18 18 18 18 17 17 17 17 17 17 17 16 16 16 16 16
24 24 23 23 23 22 22 22 21 21 21 21 21 20 20 20 20 19 19 19 19 19 18 18 18 18 18 18 18 18 17 17 17 17 17 17 16 16 16 16 16 16 16
24 24 23 23 22 22 22 21 21 21 21 21 21 20 20 20 20 19 19 19 19 18 18 18 18 18 18 18 17 17 17 17 17 17 17 16 16 16 16 16 16 16 15
24 23 23 23 22 22 22 21 21 21 21 21 21 20 20 20 20 20 19 19 19 18 18 18 18 18 17 17 17 17 17 17 17 17 16 16 16 16 16 16 16 15 15
23 23 23 23 22 22 22 22 21 21 21 21 21 21 20 20 20 19 19 19 18 18 18 18 18 18 17 17 17 17 17 17 16 16 16 16 16 16 16 15 15 15 15
23 23 23 22 22 22 22 22 21 21 21 21 21 21 20 20 20 19 19 19 18 18 18 18 17 17 17 17 17 17 16 16 16 16 16 16 15 15 15 15 15 15 15
22 22 22 22 22 22 22 22 21 21 21 21 21 21 20 20 20 19 19 18 18 18 17 17 17 17 17 17 17 17 16 16 16 16 16 16 15 15 15 15 15 15 15
22 22 22 22 22 22 22 22 21 21 21 21 21 20 20 20 19 19 19 18 18 18 17 17 17 17 17 17 16 16 16 16 16 16 16 15 15 15 15 15 15 14 14
22 22 22 22 22 22 22 21 21 21 21 20 20 20 20 19 19 19 18 18 18 17 17 17 17 17 16 16 16 16 15 15 15 15 15 15 15 15 14 14 14 14 14
22 22 22 22 22 21 21 21 21 20 20 20 20 20 19 19 19 19 18 18 18 17 17 17 16 16 16 16 16 16 15 15 15 15 15 15 15 15 14 14 14 14 14
21 21 21 21 21 21 21 21 20 20 20 20 20 19 19 19 19 19 18 18 17 17 17 16 16 16 16 16 15 15 15 15 15 15 15 15 14 14 14 14 14 13 13
21 21 21 21 20 20 20 20 20 19 19 19 19 19 19 19 18 18 18 17 17 17 16 16 16 16 16 16 15 15 15 15 15 15 15 15 14 14 14 14 13 13 13
20 20 20 20 20 20 20 19 19 19 19 19 19 18 18 18 18 18 17 17 17 16 16 16 16 16 16 15 15 15 15 15 14 14 14 14 14 14 14 13 13 13 13
19 19 19 19 19 19 19 19 19 19 18 18 18 18 18 18 17 17 17 17 16 16 16 16 16 16 15 15 15 15 15 14 14 14 14 14 14 14 13 13 13 13 12
19 19 19 19 19 18 18 18 18 18 18 18 18 18 18 17 17 17 17 17 16 16 16 16 15 15 15 15 15 15 14 14 14 14 14 14 13 13 13 13 13 13 12
18 18 18 18 18 18 18 18 18 18 18 18 17 17 17 17 17 17 17 16 16 16 16 16 15 15 15 15 15 14 14 14 14 14 13 13 13 13 13 13 12 12 12
18 18 18 17 17 17 17 17 17 17 17 17 17 17 17 17 17 16 16 16 16 16 15 15 15 15 15 14 14 14 14 14 14 13 13 13 13 13 13 12 12 12 12
Wind_Speed
11 11 12 12 10 8 8 7 7 5 4 3 2 2 1 1 1 1 3 4 3 3 3 2 1 1 1 0 0 1 1 1 1 2 3 3 2 1 2 2 2 2 4
10 11 11 11 10 10 9 8 7 6 5 4 3 2 2 1 1 1 2 4 4 4 3 2 1 1 1 1 1 1 1 1 1 1 1 3 4 3 2 1 1 2 2
14 13 12 12 11 11 10 9 7 7 6 5 3 2 2 1 1 1 1 2 3 4 3 3 2 2 2 1 0 1 1 1 1 1 2 2 2 2 3 2 1 1 1
13 13 13 12 12 12 10 8 8 7 6 5 4 4 3 3 3 2 2 1 2 3 3 2 2 2 2 1 1 1 1 1 1 1 1 2 3 1 2 3 3 2 1
14 14 14 14 13 12 10 9 8 7 6 5 6 5 3 3 2 2 2 1 1 2 2 2 2 2 2 2 1 1 1 1 1 1 1 1 0 1 2 3 4 3 2
13 13 12 11 10 10 10 9 8 7 7 7 6 6 5 4 3 2 2 2 1 1 1 2 2 2 2 2 2 2 1 1 1 1 1 1 1 1 2 2 3 3 3
13 12 12 11 11 11 11 10 9 8 7 7 6 6 6 5 5 4 3 3 1 1 2 1 2 2 2 2 2 1 1 1 1 1 1 1 2 2 2 2 2 2 3
12 13 13 13 12 12 11 11 10 9 8 7 6 5 5 4 3 4 3 4 3 3 2 2 2 2 2 2 1 1 1 0 0 1 1 1 1 1 2 2 2 1 2
12 12 12 11 11 12 11 11 11 9 8 7 6 5 5 4 4 4 3 3 3 2 2 2 2 2 2 2 1 1 1 0 0 1 1 0 1 0 1 1 2 3 2
10 10 10 10 10 10 9 9 9 9 8 8 7 6 5 5 4 3 3 3 3 2 2 2 2 2 2 2 2 1 1 1 0 0 0 1 1 1 1 0 0 2 3
11 10 9 10 10 8 9 9 8 8 7 8 7 5 5 5 4 4 4 3 3 2 2 2 2 2 2 2 1 1 1 0 1 1 0 1 1 1 1 0 0 0 1
9 10 9 9 8 8 8 9 9 9 8 8 6 6 5 4 4 4 4 3 3 3 3 2 2 2 2 2 2 1 1 1 1 1 1 2 1 1 1 1 1 1 1
8 8 8 8 8 8 8 8 8 9 8 7 7 6 5 5 5 5 4 3 3 3 2 2 3 3 2 2 2 2 1 2 2 2 1 2 0 1 1 1 1 1 1
8 8 7 7 8 8 8 8 7 8 8 8 7 7 6 6 6 5 4 4 3 3 3 3 3 3 3 2 2 2 2 1 1 1 1 1 1 2 2 2 2 1 0
6 8 8 7 6 6 6 7 7 7 8 8 8 8 7 6 5 4 4 3 3 3 3 3 2 2 3 2 3 3 2 2 1 1 1 1 2 2 2 1 1 1 1
6 6 7 7 7 7 7 6 6 6 7 8 9 7 6 6 5 5 4 4 3 3 3 3 3 3 3 3 4 3 3 3 2 2 2 2 2 1 1 1 1 1 2
5 5 6 7 7 7 6 6 6 6 6 7 7 7 7 6 6 5 4 4 4 3 3 3 3 3 3 4 4 4 3 3 3 3 2 2 2 1 1 2 2 2 2
4 4 4 4 4 4 4 4 4 4 5 5 6 6 6 6 5 5 5 4 4 4 4 4 3 3 3 4 4 4 3 3 3 3 3 3 3 2 1 2 2 3 3
4 3 3 4 4 4 4 5 4 3 3 4 5 6 7 6 6 6 5 4 4 4 4 3 4 3 3 3 4 4 2 2 3 4 3 3 3 3 2 2 3 4 4
4 4 3 4 4 3 4 5 4 3 4 5 6 6 6 6 6 6 5 4 4 4 3 3 3 4 4 5 5 4 2 2 3 3 3 4 4 4 3 3 3 4 5
4 4 4 4 2 3 4 5 3 3 4 3 3 4 5 6 6 5 4 4 4 3 3 3 3 3 4 5 5 5 3 3 3 3 3 4 5 5 5 4 4 6 5
5 4 4 3 1 2 4 3 2 2 2 2 2 3 4 5 4 4 4 4 4 4 3 3 3 3 3 4 5 5 6 5 4 4 4 4 6 5 5 4 5 5 3
3 3 3 2 2 2 3 3 2 1 1 1 1 2 2 3 4 5 5 4 4 4 4 4 4 3 3 3 5 5 6 5 4 4 5 5 5 4 4 5 5 3 2
2 2 3 3 2 1 1 1 1 1 1 0 1 1 2 3 3 4 4 4 4 4 4 4 4 3 3 3 3 2 3 4 3 3 4 4 4 3 3 3 2 2 2
1 2 3 2 1 0 0 0 0 1 1 0 1 2 2 3 3 3 3 4 5 6 6 5 5 5 5 6 7 5 4 3 3 1 1 1 1 1 2 2 1 1 1
2 2 2 2 1 0 1 1 1 1 1 1 2 2 2 2 3 2 1 1 2 4 6 7 6 6 7 6 6 6 6 5 4 3 1 2 2 2 2 2 2 1 1
Wind_Direction
177 168 164 162 158 156 152 151 151 160 148 133 136 136 156 167 170 193 180 175 168 155 144 137 123 100 116 154 86 103 57 0 20 42 4 348 337 299 248 237 220 224 224
171 173 167 166 165 165 166 163 164 167 171 170 170 170 169 190 199 201 176 182 180 177 163 155 160 132 126 78 61 94 75 334 32 98 61 359 348 340 311 287 224 247 228
176 175 171 172 169 171 172 172 174 173 177 171 149 125 85 58 54 75 203 212 191 183 167 159 160 155 148 156 169 138 135 255 309 128 138 146 246 310 329 326 313 282 261
177 174 174 174 176 178 174 168 170 174 178 166 157 158 162 176 202 201 204 224 189 186 179 167 167 170 164 175 220 169 169 161 272 293 237 188 177 183 306 324 326 321 304
179 180 180 180 179 177 173 171 167 175 180 174 173 170 176 191 196 186 186 204 224 214 195 180 169 178 182 193 222 246 183 175 190 225 248 255 234 168 194 284 312 326 306
179 180 182 175 175 174 172 171 169 179 181 179 178 176 182 184 179 189 193 210 228 245 237 179 173 182 190 200 217 229 226 232 213 214 191 179 193 222 195 236 276 291 299
177 175 173 172 175 176 177 175 175 183 184 182 186 187 190 190 193 198 193 192 201 223 242 210 192 190 200 205 202 202 232 244 239 237 232 221 226 206 184 199 256 286 301
176 177 179 176 178 179 178 177 180 185 186 185 189 189 188 190 197 193 189 194 204 215 213 201 198 199 197 206 186 213 247 255 261 304 264 245 260 220 190 189 193 287 312
177 178 178 176 176 179 182 181 179 182 185 186 184 187 187 189 192 193 191 196 207 209 208 200 184 200 186 172 156 188 248 175 316 302 316 316 307 324 245 184 173 175 243
173 175 174 174 174 176 177 173 176 181 183 186 192 196 197 193 187 182 194 201 213 211 203 200 175 184 180 166 155 191 245 138 270 262 7 344 313 320 323 264 196 171 184
169 165 168 171 170 170 171 174 181 180 183 189 193 194 191 187 185 193 208 210 211 199 194 192 175 186 196 192 174 207 205 183 288 310 348 295 298 340 331 328 18 171 171
158 158 161 160 161 166 172 180 183 183 190 191 187 191 188 180 187 202 212 207 205 205 201 183 173 185 192 195 188 209 239 207 241 277 302 293 304 324 299 299 289 263 215
144 151 156 158 164 174 179 184 187 188 186 180 181 186 188 189 201 208 210 206 204 205 193 167 171 186 194 196 197 194 212 216 219 230 230 257 250 304 292 285 279 269 281
147 150 157 168 170 175 181 183 189 189 182 177 180 186 195 197 202 206 206 207 200 193 190 181 185 189 190 193 198 197 207 224 236 229 222 239 223 242 262 271 269 259 264
145 156 164 169 170 174 182 183 187 187 183 180 188 197 199 196 194 199 205 204 198 200 187 182 193 197 197 210 202 199 202 205 224 249 243 248 253 258 247 264 255 226 213
153 163 167 172 174 177 184 186 187 186 178 184 196 198 193 193 197 203 203 196 197 195 180 188 193 209 230 221 202 190 202 200 200 230 257 266 270 286 301 312 282 210 200
150 160 172 179 184 188 185 183 188 175 172 187 194 193 192 195 201 201 194 198 198 190 194 204 199 212 227 214 206 197 193 205 215 221 235 268 294 281 282 304 323 312 260
150 158 162 171 179 176 166 167 150 154 168 182 188 186 187 193 193 191 196 199 191 192 205 210 208 212 236 218 210 201 201 211 227 225 217 226 262 268 252 261 292 291 287
145 151 148 153 149 148 150 136 129 142 164 182 189 190 188 190 192 198 204 198 186 194 206 207 205 209 239 226 219 207 202 218 240 243 237 227 242 264 245 230 263 286 290
102 105 104 110 125 146 143 135 139 155 197 200 198 191 185 186 193 201 200 190 185 200 204 214 217 214 231 237 233 218 197 221 249 260 254 243 248 260 249 227 232 258 276
95 94 93 97 127 146 134 136 146 195 225 211 195 192 190 194 196 194 183 174 183 188 194 213 230 226 230 239 238 225 211 219 235 245 254 252 247 254 258 241 232 243 259
87 92 92 85 89 116 128 137 177 221 225 193 181 197 202 199 190 174 179 178 177 185 204 218 239 246 242 237 242 236 230 227 231 247 250 250 246 246 256 258 263 256 259
109 108 108 89 61 78 116 151 223 204 164 150 193 209 208 198 184 181 188 189 189 196 211 214 230 252 260 255 246 240 242 237 238 252 254 260 259 259 265 268 272 264 230
123 112 101 87 52 37 87 180 222 157 125 146 246 221 206 205 195 188 192 195 203 209 212 215 225 237 247 250 254 255 257 257 256 269 270 270 269 268 278 292 294 256 230
129 117 122 121 123 71 35 300 270 124 138 235 256 240 223 206 202 203 207 206 210 209 206 216 216 218 237 243 231 223 235 230 231 229 292 293 303 308 308 303 290 280 287
145 137 138 148 175 46 336 323 305 152 168 231 266 247 239 227 203 197 248 309 225 229 222 218 214 226 235 240 232 230 229 226 203 165 224 252 253 248 243 250 271 270 259
Height
1528 1530 1531 1533 1535 1536 1537 1538 1539 1540 1541 1542 1542 1543 1544 1544 1545 1545 1545 1546 1546 1546 1546 1545 1545 1545 1544 1544 1544 1544 1543 1542 1542 1541 1541 1541 1540 1540 1539 1539 1539 1538 1538
1527 1529 1530 1532 1533 1535 1536 1538 1539 1540 1541 1542 1542 1543 1544 1544 1545 1545 1545 1546 1546 1546 1546 1545 1545 1545 1544 1544 1543 1543 1542 1542 1541 1541 1540 1540 1540 1539 1539 1538 1538 1537 1537
1523 1526 1528 1530 1532 1533 1535 1536 1538 1539 1540 1541 1542 1543 1543 1544 1544 1544 1545 1545 1545 1546 1545 1545 1545 1544 1544 1543 1543 1542 1541 1541 1541 1540 1540 1539 1538 1538 1537 1537 1536 1536 1535
1521 1523 1526 1528 1530 1532 1533 1535 1537 1538 1539 1540 1541 1541 1542 1542 1543 1544 1544 1545 1545 1545 1544 1544 1544 1544 1543 1543 1542 1541 1541 1540 1539 1539 1539 1539 1538 1537 1536 1536 1535 1534 1533
1519 1521 1524 1526 1528 1530 1532 1534 1536 1537 1538 1539 1540 1541 1541 1542 1543 1543 1544 1544 1544 1544 1544 1544 1543 1543 1542 1542 1541 1540 1539 1539 1538 1538 1537 1537 1536 1536 1535 1534 1533 1532 1532
1518 1520 1522 1525 1527 1529 1531 1533 1534 1536 1537 1538 1539 1539 1540 1541 1542 1542 1542 1543 1543 1543 1543 1543 1542 1542 1541 1541 1540 1539 1538 1537 1537 1536 1536 1535 1534 1534 1533 1532 1531 1530 1530
1515 1517 1520 1522 1525 1527 1529 1531 1532 1534 1535 1537 1538 1538 1539 1540 1541 1541 1541 1542 1542 1542 1542 1542 1541 1541 1540 1539 1539 1538 1537 1536 1535 1535 1534 1534 1533 1533 1532 1531 1530 1529 1528
1512 1514 1516 1519 1522 1525 1527 1529 1530 1532 1534 1535 1536 1537 1538 1539 1539 1540 1540 1541 1541 1541 1541 1541 1540 1539 1539 1538 1538 1537 1536 1535 1534 1533 1533 1532 1531 1531 1530 1529 1528 1527 1526
1510 1512 1514 1517 1520 1522 1524 1526 1528 1530 1532 1533 1535 1535 1536 1537 1538 1539 1539 1540 1540 1540 1540 1539 1539 1538 1537 1537 1536 1535 1534 1533 1533 1532 1531 1530 1530 1529 1528 1527 1526 1526 1524
1508 1511 1513 1516 1518 1520 1523 1525 1526 1528 1530 1531 1533 1534 1535 1535 1536 1537 1537 1538 1538 1539 1538 1538 1537 1537 1536 1535 1534 1533 1532 1532 1531 1531 1530 1529 1528 1527 1526 1525 1524 1524 1523
1506 1510 1512 1515 1517 1519 1521 1523 1524 1526 1528 1530 1531 1532 1533 1534 1535 1535 1536 1536 1536 1537 1537 1536 1536 1535 1534 1534 1533 1532 1531 1530 1529 1529 1528 1527 1526 1525 1524 1523 1522 1522 1521
1505 1508 1511 1513 1515 1517 1519 1521 1522 1524 1526 1528 1529 1530 1531 1532 1533 1533 1534 1534 1535 1535 1535 1534 1534 1533 1533 1532 1531 1530 1530 1529 1528 1527 1526 1525 1524 1523 1522 1521 1520 1519 1519
1504 1507 1510 1512 1514 1515 1517 1519 1520 1522 1524 1525 1527 1528 1529 1530 1530 1531 1531 1532 1532 1532 1532 1532 1532 1531 1531 1530 1529 1529 1528 1527 1526 1525 1524 1523 1522 1521 1520 1519 1518 1517 1516
1503 1506 1508 1510 1512 1513 1515 1516 1518 1519 1521 1523 1525 1526 1527 1527 1528 1529 1529 1529 1530 1530 1530 1530 1529 1529 1528 1528 1527 1526 1526 1525 1524 1523 1522 1521 1520 1519 1518 1517 1516 1515 1514
1502 1504 1507 1508 1510 1512 1513 1514 1515 1517 1519 1521 1522 1523 1524 1525 1526 1526 1527 1527 1527 1528 1528 1528 1527 1527 1526 1525 1525 1524 1523 1522 1521 1521 1520 1519 1518 1517 1516 1515 1513 1512 1511
1501 1503 1505 1507 1508 1510 1511 1512 1513 1515 1516 1518 1519 1520 1521 1522 1523 1524 1524 1525 1525 1525 1525 1525 1525 1524 1524 1523 1522 1521 1521 1520 1519 1518 1517 1516 1515 1514 1513 1512 1511 1510 1509
1501 1502 1504 1505 1507 1508 1509 1510 1511 1512 1514 1515 1517 1518 1519 1520 1521 1521 1522 1522 1522 1522 1522 1522 1522 1521 1521 1520 1520 1519 1518 1517 1517 1516 1514 1513 1513 1512 1511 1509 1508 1507 1507
1500 1502 1503 1504 1506 1507 1507 1509 1510 1511 1512 1513 1514 1515 1516 1517 1518 1519 1519 1519 1519 1519 1519 1519 1519 1518 1518 1518 1517 1516 1515 1514 1514 1513 1512 1511 1510 1509 1508 1507 1505 1504 1504
1499 1500 1502 1503 1504 1505 1506 1507 1508 1509 1510 1511 1511 1512 1513 1514 1515 1515 1515 1516 1516 1516 1516 1516 1515 1515 1515 1515 1514 1514 1513 1511 1510 1510 1509 1508 1507 1506 1505 1504 1503 1502 1501
1498 1499 1500 1502 1502 1503 1504 1505 1506 1507 1507 1508 1508 1509 1510 1511 1511 1512 1512 1512 1513 1513 1513 1513 1512 1512 1511 1511 1511 1511 1509 1508 1507 1506 1506 1505 1504 1504 1502 1501 1500 1499 1498
1497 1498 1499 1500 1501 1501 1502 1502 1502 1503 1504 1505 1506 1507 1507 1508 1509 1509 1509 1509 1510 1510 1509 1509 1509 1509 1508 1508 1508 1507 1506 1505 1504 1503 1502 1502 1501 1501 1500 1498 1497 1496 1496
1496 1497 1498 1498 1499 1499 1500 1500 1500 1502 1503 1503 1503 1504 1505 1505 1506 1506 1506 1506 1506 1506 1506 1506 1505 1505 1505 1504 1504 1504 1503 1502 1501 1500 1499 1499 1498 1497 1496 1496 1494 1494 1493
1495 1496 1496 1497 1497 1498 1498 1499 1499 1500 1501 1500 1501 1501 1502 1502 1503 1503 1503 1503 1503 1503 1502 1502 1501 1501 1501 1501 1501 1500 1500 1499 1498 1497 1497 1496 1495 1494 1493 1492 1492 1491 1490
1495 1495 1495 1495 1496 1496 1497 1497 1498 1498 1498 1498 1498 1499 1499 1499 1499 1499 1499 1499 1499 1499 1498 1498 1497 1497 1497 1497 1497 1496 1496 1495 1494 1494 1493 1493 1492 1491 1490 1489 1488 1488 1487
1494 1494 1494 1494 1494 1495 1495 1495 1495 1495 1495 1496 1496 1496 1496 1496 1496 1496 1495 1495 1495 1496 1495 1495 1494 1493 1492 1493 1493 1493 1492 1491 1491 1491 1490 1489 1488 1487 1486 1486 1485 1485 1484
1493 1493 1492 1492 1492 1493 1493 1493 1493 1493 1493 1493 1493 1492 1492 1492 1492 1492 1492 1492 1492 1492 1492 1492 1491 1490 1490 1489 1489 1489 1488 1488 1488 1487 1485 1485 1484 1484 1483 1483 1482 1482 1481